Weather Service Report


687 
ASUS42 KCAE 250110
RWRCAE
REGIONAL WEATHER ROUNDUP
NATIONAL WEATHER SERVICE COLUMBIA SC
800 PM EST TUE JAN 24 2017

NOTE: "FAIR" INDICATES FEW OR NO CLOUDS BELOW 12,000 FEET WITH NO
SIGNIFICANT WEATHER AND/OR OBSTRUCTIONS TO VISIBILITY.

NOT ALL STATIONS ARE QUALITY CONTROLLED BY THE NATIONAL 
WEATHER SERVICE. USE DATA WITH CAUTION...ESPECIALLY 
DEWPOINT OBSERVATIONS.

SCZ001>056-GAZ040-063>065-077-250200-
...UPSTATE SOUTH CAROLINA...
  
CITY           SKY/WX    TMP DP  RH WIND       PRES   REMARKS
ANDERSON       CLEAR     55  39  54 SW8       29.81R                  
LIBERTY        CLEAR     52  36  55 CALM      29.80R                  
SPARTANBURG    CLEAR     46  36  66 CALM      29.81R                  
CLEMSON        CLEAR     59  32  36 W12       29.81R                  
GREENVILLE     CLEAR     57  36  45 CALM      29.81R                  
GREENWOOD      CLEAR     53  38  56 SW6       29.83S                  
GREER          CLEAR     52  39  61 NE5       29.80R                  
ROCK HILL      CLEAR     51  36  56 W3        29.80R                  
CHESTER        CLEAR     50  32  50 W3        29.81S                  
LAURENS        CLEAR     54  41  62 SW7       29.81R                  


...CENTRAL SOUTH CAROLINA...
  
CITY           SKY/WX    TMP DP  RH WIND       PRES   REMARKS
COLUMBIA APT   CLEAR     55  43  63 W6        29.82R                  
COLUMBIA OWENS CLEAR     54  44  69 CALM      29.83R                  
MCENTIRE ANGB  CLEAR     56  42  59 W5        29.82R                  
ORANGEBURG     CLEAR     52  46  80 W5        29.83R                  
SUMTER SHAW    CLEAR     55  41  58 W6        29.80R                  
NEWBERRY       CLEAR     52  43  71 SW6       29.85R                  
AIKEN          FAIR      50  41  71 SW8       29.86S                  
BARNWELL       FAIR      54  46  76 CALM      29.85R                  
CAMDEN         FAIR      55  43  62 CALM      29.82R                  
LANCASTER      CLEAR     54  34  47 W3        29.81S                  
WINNSBORO      CLEAR     54  43  66 SW5       29.81S                  


...EASTERN AND COASTAL SOUTH CAROLINA...
  
CITY           SKY/WX    TMP DP  RH WIND       PRES   REMARKS
N MYRTLE BCH   CLEAR     50  47  89 CALM      29.79R                  
CONWAY         FAIR      46  45  93 CALM      29.80R                  
MARION         FAIR      52  41  66 W6        29.80R                  
HARTSVILLE     FAIR      52  41  66 W3        29.81R                  
FLORENCE       CLEAR     55  42  61 W6        29.80R                  
DARLINGTON     CLEAR     53  43  68 W6        29.81R                  
CHARLESTON APT CLEAR     56  44  64 W6        29.84R                  
MOUNT PLEASANT FAIR      59  46  63 W5        29.84R                  
WALTERBORO     CLEAR     55  45  67 CALM      29.85S                  
BEAUFORT       CLEAR     52  46  80 SW6       29.86R                  


...EASTERN GEORGIA...
  
CITY           SKY/WX    TMP DP  RH WIND       PRES   REMARKS
AUGUSTA BUSH F PTCLDY    49  43  80 S3        29.84R                  
AUGUSTA DANIEL CLEAR     60  37  42 VRB3      29.85R                  
THOMSON        CLEAR     52  44  75 CALM      29.89S                  
WASHINGTON     FAIR      57  39  51 W8        29.85R                  
CLAXTON        FAIR     N/A N/A N/A SW5       29.88R                  
SYLVANIA       CLEAR    N/A N/A N/A W3        29.87R                  
STATESBORO     CLEAR     58  46  63 W3        29.87S                  
SAVANNAH       CLEAR     55  44  66 W6        29.88R                  


...SOUTHERN NORTH CAROLINA...
  
CITY           SKY/WX    TMP DP  RH WIND       PRES   REMARKS
CHARLOTTE      PTCLDY    53  39  59 W5        29.80R                  
MONROE         CLEAR     54  37  52 W6        29.79R                  
ROCKINGHAM     CLEAR     49  41  73 CALM      29.80R                  
RUTHERFORDTON  CLEAR     52  29  41 N5        29.82R                  
ASHEVILLE      CLEAR     42  35  76 NW16      29.87R                  

$$
  

Return to Home page


Western Regional Climate Center, wrcc@dri.edu